Overview Statistics Trail Chart Weather Telemetry Raw packets
 

This is the latest recevied weather packets stored in our database for station/object VK6WB. If no packets are shown the sender has not sent any weather packets the latest 10 day(s).

<< 26 27 28 29 30 31 32 >>
Time Temp. Humidity Pressure Rain* Wind** Luminosity Snow
1777194004 24.44° C 33% 1011 hPa 0 mm - 530 W/m² -
1777193404 24.44° C 32% 1011.1 hPa 0 mm - 530 W/m² -
1777192805 25° C 31% 1011.2 hPa 0 mm - 530 W/m² -
1777192204 25° C 31% 1011.1 hPa 0 mm - 9 W/m² -
1777191604 25.56° C 28% 1011.1 hPa 0 mm - 9 W/m² -
1777191005 25.56° C 28% 1011.2 hPa 0 mm - 9 W/m² -
1777190404 26.11° C 25% 1011.2 hPa 0 mm - 9 W/m² -
1777189804 26.67° C 24% 1011.3 hPa 0 mm - 9 W/m² -
1777189205 27.22° C 24% 1011.5 hPa 0 mm - 9 W/m² -
1777188605 26.67° C 24% 1011.5 hPa 0 mm - 9 W/m² -
1777188004 26.67° C 25% 1011.5 hPa 0 mm - 9 W/m² -
1777187405 26.11° C 28% 1011.5 hPa 0 mm - 9 W/m² -
1777186804 26.11° C 28% 1011.6 hPa 0 mm - 9 W/m² -
1777186204 26.11° C 27% 1011.7 hPa 0 mm - 9 W/m² -
1777185605 25.56° C 29% 1011.6 hPa 0 mm - 9 W/m² -
1777185004 25.56° C 28% 1011.7 hPa 0 mm - 9 W/m² -
1777184404 26.11° C 26% 1011.8 hPa 0 mm - 9 W/m² -
1777183805 26.11° C 29% 1011.9 hPa 0 mm - 9 W/m² -
1777183204 25.56° C 27% 1011.9 hPa 0 mm - 9 W/m² -
1777182604 25.56° C 27% 1012 hPa 0 mm - 9 W/m² -
1777182005 25.56° C 27% 1012 hPa 0 mm - 9 W/m² -
1777181404 25.56° C 27% 1012.1 hPa 0 mm - 9 W/m² -
1777180804 26.11° C 26% 1012.4 hPa 0 mm - 9 W/m² -
1777180205 26.11° C 26% 1012.6 hPa 0 mm - 9 W/m² -
1777179604 25.56° C 27% 1012.8 hPa 0 mm - 9 W/m² -

* Rain latest hour (hover to see other rain measurements)
** Current wind speed in m/s (hover to see current wind gust speed)